Regional Weather Roundup
Issued by NWS

Home | Current Version | Previous Version | Graphics & Text | Print | Product List | Glossary Off
Versions: 1 2 3 4 5 6 7 8 9 10 11 12 13 14 15 16 17 18 19 20 21 22 23 24 25 26 27 28 29 30 31 32 33 34 35 36 37 38 39 40 41 42 43 44 45 46 47 48 49 50

479
ASUS43 KMKX 180811
RWRWI

WISCONSIN REGIONAL WEATHER ROUNDUP
NATIONAL WEATHER SERVICE MILWAUKEE/SULLIVAN WI
300 AM CDT FRI AUG 18 2017

NOTE: "FAIR" INDICATES FEW OR NO CLOUDS BELOW 12,000 FEET WITH NO
SIGNIFICANT WEATHER AND/OR OBSTRUCTIONS TO VISIBILITY.

WIZ001-002-006>008-014>016-023>028-180900-
NORTHWEST WISCONSIN

CITY           SKY/WX    TMP DP  RH WIND       PRES   REMARKS
SUPERIOR ARPT    N/A     54  54 100 W5        29.80R FOG
ASHLAND        CLOUDY    62  59  90 NW6       29.75S
HAYWARD        CLOUDY    61  58  90 NW5       29.80R
SIREN          CLEAR     57  56  96 W6        29.85R
CUMBERLAND     CLEAR     55  55 100 W7        29.84R
RICE LAKE      CLEAR     58  57  96 W5        29.84R FOG
CHETEK         CLOUDY    62  59  93 W7        29.82R
LADYSMITH      CLOUDY    63  60  90 W6        29.79F
EAU CLAIRE     CLEAR     62  58  86 W9        29.81R
MENOMONIE      CLEAR     62  58  88 W7        29.83R
NEW RICHMOND   CLEAR     58  58  97 W6        29.85S
OSCEOLA        CLEAR     58  58 100 CALM      29.88S
$$

WIZ003>005-009-010-017-018-180900-
NORTH CENTRAL WISCONSIN

CITY           SKY/WX    TMP DP  RH WIND       PRES   REMARKS
MANITOWISH WTR DRIZZLE   59  59 100 NW12      29.73R
ARBOR VITAE    DRIZZLE   60  59  96 NW9       29.72S
WOODRUFF       DRIZZLE   60  59  96 NW9       29.72S
RHINELANDER    CLOUDY    60  60 100 W8        29.72S
EAGLE RIVER    DRIZZLE   59  59 100 NW7       29.70R
LAND O LAKES   CLOUDY    60  59  97 NW7       29.71R FOG
PHILLIPS       CLOUDY    60  60  99 NW6       29.75S
TOMAHAWK         N/A     60  57  92 W6        29.74S
MEDFORD        CLOUDY    60  58  94 W9        29.76S
MERRILL        CLOUDY    61  61 100 NW8       29.74R
$$

WIZ029-030-035-036-043>047-180900-
CENTRAL WISCONSIN

CITY           SKY/WX    TMP DP  RH WIND       PRES   REMARKS
WAUSAU         CLOUDY    62  60  93 NW12      29.72S
MOSINEE        CLOUDY    61  59  94 W10G18    29.75S
MARSHFIELD     CLOUDY    62  58  86 NW13G22   29.76R
STEVENS POINT  CLOUDY    61  61 100 W9        29.75R
WAUPACA        CLOUDY    66  63  89 W10       29.72S
WAUTOMA        CLOUDY    65  61  87 W12       29.75
WISC RAPIDS    CLOUDY    63  61  93 NW8       29.77R
CAMP DOUGLAS   CLOUDY    64  60  86 NW10      29.79R
$$

WIZ011>013-019>022-031-037>040-048>050-180900-
NORTHEAST WISCONSIN

CITY           SKY/WX    TMP DP  RH WIND       PRES   REMARKS
ANTIGO         CLOUDY    60  59  97 NW10G17   29.71S
SHAWANO        PTCLDY    64  59  83 W9        29.67S
OCONTO         CLOUDY    63  59  88 W12       29.63R
STURGEON BAY   CLOUDY    65  60  84 W13G18    29.63R
GREEN BAY      MOCLDY    63  61  93 W9        29.67R
MANITOWOC      MOCLDY    65  59  81 W16       29.67R
APPLETON       MOCLDY    63  55  77 W14       29.69S
CLINTONVILLE   CLEAR     63  57  82 W13G18    29.69S
OSHKOSH        LGT RAIN  64  62  93 W9        29.71R
$$

WIZ032>034-041-042-053>061-180900-
SOUTHWEST WISCONSIN

CITY           SKY/WX    TMP DP  RH WIND       PRES   REMARKS
LA CROSSE      MOCLDY    69  63  81 NW6       29.81R
SPARTA         CLOUDY    63  59  88 CALM      29.81S
VIROQUA        MOCLDY    64  63  99 W5        29.82S
BOSCOBEL       PTCLDY    67  63  87 SW5       29.82R
PRAIRIE DU CHI CLEAR     65  60  83 W6        29.82S
PLATTEVILLE    CLEAR     64  64 100 W6        29.83S
$$

WIZ056-057-062-063-064-067-068-180900-
SOUTH CENTRAL WISCONSIN

CITY           SKY/WX    TMP DP  RH WIND       PRES   REMARKS
REEDSBURG      CLOUDY    65  62  88 NW14      29.79R
BARABOO/DELLS  CLOUDY    65  60  83 W8        29.79R
LONE ROCK      CLEAR     65  63  93 W6        29.80R
MINERAL POINT  MOCLDY    64  64 100 W6        29.82S
MADISON        CLOUDY    66  61  84 W7        29.78R
MIDDLETON      CLOUDY    66  65  97 W9        29.80R
WATERTOWN      CLOUDY    66  63  91 W9        29.76S
MONROE         CLOUDY    64  63  94 W9        29.81R
JANESVILLE     MOCLDY    64  64 100 W7        29.78S
$$

WIZ051-052-058>065-066-070>072-180900-
SOUTHEAST WISCONSIN

CITY           SKY/WX    TMP DP  RH WIND       PRES   REMARKS
MILWAUKEE      CLOUDY    69  61  75 W13       29.73S
WAUKESHA       CLOUDY    63  59  88 W13       29.76R
MILWAUKEE/TIMM CLOUDY    66  57  72 W10       29.74R
RACINE         CLOUDY    68  62  81 W7        29.76R
KENOSHA        PTCLDY    66  61  84 W10       29.75S
FOND DU LAC    LGT RAIN  64  61  90 W9        29.73R
SHEBOYGAN      CLOUDY    66  62  87 W12G23    29.68S
WEST BEND      CLOUDY    64  61  88 W12G17    29.72S
JUNEAU         CLOUDY    64  61  88 W7        29.76S
$$

LSZ147-162-180900-
LAKE SUPERIOR

STATION/POSITION TIME  TEMP    WIND        PRES    WAVE
                       AIR SEA DIR/SP/G            HT/PER
                 (UTC) (F)     (DEG/KT/KT) (MB)    (FT/S)
W MID LAKE BUOY  0750   61 59  310/ 12/ 14 1004.9S   3/ 6
DEVILS ISLAND    0800   62     310/ 15/ 16 1006.8R
SAXON HARBOR     0730   64     310/ 11/ 14 1006.4S
$$

LMZ867-665-643>646-180900-
LAKE MICHIGAN

STATION/POSITION TIME  TEMP    WIND        PRES    WAVE
                       AIR SEA DIR/SP/G            HT/PER
                 (UTC) (F)     (DEG/KT/KT) (MB)    (FT/S)
S GREEN BAY BUOY 0800   66 71  260/ 16/ 21 1003.3
N MID LAKE BUOY  0750   65 67  270/ 21/ 25 1000.5R   4/ 6
NORTHPORT PIER   0740   64     280/  8/ 13 1001.7S
KEWAUNEE LAKESHO 0748   66     280/  8/ 15 1002.9R
SHEBOYGAN LAKESH 0800   67     280/ 14/ 19 1004.7R
PORT WASHINGTON  0740   68     280/  6/ 18 1006.8S
ATWATER BUOY     0709   69 69  260/ 14/ 17 1006.8R
MILWAUKEE LAKESH 0750   69     290/ 12/ 15   N/A
S MID LAKE BUOY  0750   70 71  310/ 19/ 23 1006.1R   4/ 5
KENOSHA   LAKESH 0800   68     270/  8/ 15 1007.5
$$

TC  - TEMPERATURE IN CELSIUS
VSB - VISIBILITY IN STATUTE MILES
WCI - WIND CHILL INDEX
HX  - HEAT INDEX





USA.gov is the U.S. government's official web portal to all federal, state and local government web resources and services.